Location: ???????
(38.3360°N, 23.6977°E)
Time: 05:50:59
(UTC+00:00)

Cosmos 1975 Rocket - Pass Details

Date: 17 November 2025
Orbit: 598 x 626 km, 82.5° (Epoch: 09 December)

Event Time Altitude Azimuth Distance (km) Brightness Sun altitude
Rises 15:51:52 0° 353° (N) 2,869 6.4 -8.3°
Reaches altitude 10° 15:54:05 10° 355° (N) 1,966 5.5 -8.7°
Maximum altitude 15:58:26 81° 83° (E) 624 3.0 -9.5°
Drops below altitude 10° 16:02:48 10° 171° (S) 1,969 5.7 -10.3°
Sets 16:05:01 0° 172° (S) 2,874 6.6 -10.8°
